Regional Weather Roundup
Issued by NWS

Home | Current Version | Previous Version | Graphics & Text | Print | Product List | Glossary On
Versions: 1 2 3 4 5 6 7 8 9 10 11 12 13 14 15 16 17 18 19 20 21 22 23 24 25 26 27 28 29 30 31 32 33 34 35 36 37 38 39 40 41 42 43 44 45 46 47 48 49 50
000
ASUS45 KTFX 221910
RWRMT
MONTANA REGIONAL WEATHER ROUNDUP
NATIONAL WEATHER SERVICE GREAT FALLS MT
100 PM MDT FRI JUL 22 2016

NOTE: "FAIR" INDICATES FEW OR NO CLOUDS BELOW 12000 FEET WITH NO
SIGNIFICANT WEATHER AND/OR OBSTRUCTIONS TO VISIBILITY.

MTZ001>007-043-222000-
WEST OF THE DIVIDE

CITY           SKY/WX    TMP DP  RH WIND       PRES   REMARKS
KALISPELL      PTSUNNY   78  48  34 SE16      29.95S
MISSOULA       SUNNY     85  46  25 W20       30.01S
BUTTE          SUNNY     86  31  13 W14G22    30.07F
MULLAN PASS    CLOUDY    58  44  60 NW9G24    30.23R
ANACONDA         N/A     88  28  11 SW14G24   30.05S
DEER LODGE       N/A     81  43  26 N7        30.05S
EUREKA           N/A     75  43  31 NW13      29.99R
HAMILTON         N/A     82  45  26 CALM      30.02S
LIBBY            N/A     77  48  36 W10G23    30.01R
PLAINS           N/A     79  47  32 SW16      30.02R
RONAN            N/A     81  50  33 S5        30.05R
$$

MTZ008-052>055-222000-
SOUTHWEST MONTANA

CITY           SKY/WX    TMP DP  RH WIND       PRES   REMARKS
BOZEMAN        SUNNY     93  41  16 SW12      29.99F
DILLON         SUNNY     87  46  24 SW7       30.03F
W YELLOWSTONE  SUNNY     81  36  19 SW21G31   30.25F
ENNIS          SUNNY     91  36  14 S24G37    30.11F
THREE FORKS      N/A     90 N/A N/A N5        29.96F
TWIN BRIDGES     N/A     88  43  20 S2        30.01F
$$

MTZ009-010-012-014-046-048-049-054-222000-
EAST SLOPES AND CENTRAL MONTANA

CITY           SKY/WX    TMP DP  RH WIND       PRES   REMARKS
CUT BANK       SUNNY     82  45  27 VRB7      29.95F
GREAT FALLS    CLOUDY    84  44  24 W5        29.94F
MALMSTROM AFB  MOSUNNY   80  45  28 N2        29.93F
HELENA         SUNNY     87  46  24 NW8       29.95F
CHOTEAU          N/A     84  45  24 VRB5      29.96F
CONRAD           N/A     83  51  32 NE1       29.97F
$$

MTZ011-013-016-021-045-047-050-051-222000-
NORTH CENTRAL MONTANA

CITY           SKY/WX    TMP DP  RH WIND       PRES   REMARKS
HAVRE          SUNNY     91  60  35 E17       29.87F HX  90
LEWISTOWN      CLOUDY    87  57  35 E9        29.98F
N BAR RANCH      N/A     82  50  32 VRB7G15   30.05F
CHINOOK          N/A     86  63  45 E12G20    29.88F
$$

MTZ017>020-022>027-061-062-222000-
NORTHEAST MONTANA

CITY           SKY/WX    TMP DP  RH WIND       PRES   REMARKS
GLASGOW        SUNNY     89  59  36 E13       29.94F
JORDAN           N/A     93  47  20 SE16      29.94F
SIDNEY         PTSUNNY   88  64  44 E14G20    29.98F
WOLF POINT     SUNNY     93  59  31 E13G22    29.96F HX  92
PLENTYWOOD       N/A     81  59  47 E12G18    30.04F
POPLAR           N/A     90  59  35 SE17      29.97F
SCOBEY           N/A     87  63  44 E9        30.02F
$$

MTZ028>42-056>058-222000-
SOUTHCENTRAL AND SOUTHEAST MONTANA

CITY           SKY/WX    TMP DP  RH WIND       PRES   REMARKS
BAKER          SUNNY     93  64  38 E20G31    30.01F HX  94
BILLINGS       CLOUDY    90  44  20 VRB3      29.98F
LIVINGSTON     PTSUNNY   96  38  13 SW18G24   30.01F HX  91
MILES CITY     SUNNY     98  50  19 SE13G23   29.91F HX  95
EKALAKA          N/A     94  59  31 E13       30.00F HX  93
FORSYTH          N/A     97  48  19 SE7       29.93F HX  93
LAUREL           N/A     88  49  25 NE3       29.98F
ROUNDUP          N/A     86  57  36 SE5       29.91F
$$

REGIONAL REPORTS...DAKOTAS

CITY           SKY/WX    TMP DP  RH WIND       PRES   REMARKS
WILLISTON      CLOUDY    91  56  30 SE17G25   30.00F
MINOT          CLOUDY    88  59  37 NE8       30.04F
DICKINSON      SUNNY     85  72  65 E17G26    30.01F HX  91
BEACH            N/A     90  68  48 E17G25    30.03F HX  93
CROSBY           N/A     77  63  61 E12       30.06F
WATFORD CITY   PTSUNNY   86  57  37 E18G24    30.02F
BISMARCK       CLOUDY    87  74  64 E12       30.02R HX  95
GRAND FORKS    MOSUNNY   85  63  47 NE8       30.01F
FARGO          SUNNY     91  67  44 NW6       30.01R HX  94
BUFFALO SD       N/A     94  67  41 E14G21    29.94F HX  97
RAPID CITY     CLOUDY   101  55  21 S22G30    30.03F HX  99
$$

REGIONAL REPORTS...WYOMING/IDAHO/WASHINGTON

CITY           SKY/WX    TMP DP  RH WIND       PRES   REMARKS
GILLETTE       SUNNY     99  38  12 S20G25    30.04F HX  94
SHERIDAN       MOSUNNY   95  43  16 E3        30.01F HX  91
BUFFALO WY     SUNNY     96  37  12 N9        30.08F HX  91
CODY           PTSUNNY   91  37  15 SW9G16    30.11F
YELLOWSTONE LA   N/A     78  41  26 SW8       30.37F
IDAHO FALLS    MOSUNNY   88  37  16 SW17      30.15F
SALMON         SUNNY     81  39  22 N5        29.99F
BOISE          SUNNY     85  45  24 N12G17    30.12F
SPOKANE        RAIN      60  55  83 S6        30.17R
$$

REGIONAL REPORTS...ALBERTA

CITY           SKY/WX    TMP DP  RH WIND       PRES   REMARKS
EDMONTON       MOSUNNY   75  55  50 SW14      29.91F
CALGARY        PTSUNNY   72  52  49 E6        29.98F
LETHBRIDGE     MOSUNNY   75  55  50 NE3       29.94F
MEDICINE HAT   MOSUNNY   82  50  32 E8        29.90F
WATERTON GATE    N/A     77  48  36 E7          N/A
MILK RIVER       N/A     81  48  32 NE9G17      N/A
$$

REGIONAL REPORTS...SASKATCHEWAN

CITY           SKY/WX    TMP DP  RH WIND       PRES   REMARKS
SWIFT CURRENT  SUNNY     79  55  44 SE18G25   30.00F
REGINA         MOSUNNY   82  55  39 S10       30.04F
SASKATOON      PTSUNNY   79  52  38 VRB3      30.03F
CYPRESS HILLS    N/A     79  55  44 SE10G18     N/A
VAL MARIE        N/A     84  55  37 SE13        N/A
ROCKGLEN         N/A     81  50  34 SE14        N/A
ASSINIBOIA       N/A     77  54  44 S10         N/A
$$



USA.gov is the U.S. government's official web portal to all federal, state and local government web resources and services.